Location: Haliburton Scout Reserve
(45.0900°N, 78.3200°W)
Time: 08:44:58
(UTC-04:00)

S-56A Canister/Altair - Pass Details

Date: 03 February 2023
Orbit: 639 x 2493 km, 38.9° (Epoch: 27 March)

Event Time Altitude Azimuth Distance (km) Brightness Sun altitude
Rises 10:36:45 0° 218° (SW) 2,921 10.8 23.5°
Reaches altitude 10° 10:39:25 10° 201° (SSW) 2,035 10.4 23.8°
Maximum altitude 10:42:49 21° 152° (SSE) 1,536 12.7 24.0°
Drops below altitude 10° 10:46:40 10° 103° (ESE) 2,340 10.7 24.4°
Sets 10:50:01 0° 88° (E) 3,513 11.2 24.6°
